Flag for Congo Weather past 2 weeks in Dolisie, Congo

Now
88 °F

Scattered clouds.


Feels Like: 98 °F
Forecast: 70 / 87 °F
Wind: 9 mph from Southwest

Location: Pointe Airport-Noire

Current Time: Mar 30, 2015 at 2:59:17 PM

Latest Report: Mar 30, 2015 at 12:00 PM


Visibility: N/A

Pressure: 29.89 "Hg

Humidity: 66%

Dew point: 75 °F

Location of DolisieLocation

Historic Weather in Dolisie — Graph

°F

Dolisie temperature yesterday

Maximum temperature yesterday: 84 °F (at 12:00 PM)
Minimum temperature yesterday: 75 °F (at 1:00 AM)
Average temperature yesterday: 79 °F

Past Weeks' High & Low Weather Summary

 TemperatureHumidityPressure
High91 °F (Mar 17, 12:00 PM)100% (Mar 16, 5:00 AM)29.98 "Hg (Mar 16, 5:00 AM)
Low73 °F (Mar 19, 2:00 AM)52% (Mar 17, 12:00 PM)29.68 "Hg (Mar 18, 4:00 PM)
Average82 °F85%29.83 "Hg
* Reported Mar 15 12:00 Noon — Mar 30 12:00 Noon, Dolisie, Weather by CustomWeather, © 2015

Note: Actual official high and low records may vary slightly from our data, if they occured in-between our weather recording intervals... More about our weather records

Advertising

Dolisie weather history for previous 24 hours

 ConditionsComfort  
Time TempWeatherWind HumidityBarometerVisibility
12:00 PM
Mon, Mar 30
88 °FScattered clouds.9 mph66%29.89 "HgN/A
11:00 AM88 °FScattered clouds.5 mph62%29.89 "HgN/A
10:00 AM86 °FPassing clouds.2 mph75%29.92 "HgN/A
9:00 AM82 °FScattered clouds.3 mph84%29.92 "Hg5 mi
8:00 AM79 °FScattered clouds.5 mph94%29.92 "Hg5 mi
7:00 AM77 °FScattered clouds.3 mph100%29.89 "Hg5 mi
6:00 AM77 °FPartly cloudy.1 mph100%29.86 "Hg4 mi
5:00 AM77 °FLight rain. Partly cloudy.1 mph100%29.86 "Hg4 mi
4:00 AM77 °FLight rain. Partly cloudy.5 mph100%29.86 "Hg4 mi
3:00 AM79 °FPassing clouds.1 mph94%29.86 "Hg5 mi
2:00 AM79 °FPartly cloudy.3 mph94%29.86 "Hg5 mi
1:00 AM79 °FPartly cloudy.2 mph94%29.89 "Hg5 mi
12:00 AM79 °FPassing clouds.2 mph94%29.89 "Hg5 mi
11:00 PM
Sun, Mar 29
79 °FPassing clouds.2 mph89%29.89 "Hg5 mi
10:00 PM79 °FPassing clouds.3 mph94%29.86 "Hg5 mi
9:00 PM79 °FPassing clouds.3 mph94%29.86 "Hg5 mi
8:00 PM81 °FPassing clouds.2 mph89%29.86 "Hg5 mi
7:00 PM81 °FPassing clouds.2 mph89%29.83 "HgN/A
6:00 PM82 °FScattered clouds.2 mph84%29.83 "HgN/A
5:00 PM82 °FScattered clouds.3 mph84%29.83 "HgN/A
4:00 PM84 °FBroken clouds.5 mph79%29.86 "HgN/A
3:00 PM82 °FBroken clouds.5 mph84%29.86 "HgN/A
2:00 PM84 °FBroken clouds.3 mph79%29.86 "HgN/A
Weather by CustomWeather, © 2015

See weather overviewHow to use our weather pages